Location: Shenandoah County Park
(38.9356°N, 78.4524°W)
Time: 19:18:50
(UTC-04:00)

Explorer 11/Cluster Stage 4 - Pass Details

Date: 01 March 2024
Orbit: 465 x 1219 km, 28.8° (Epoch: 22 April)

Event Time Altitude Azimuth Distance (km) Brightness Sun altitude
Enters shadow 21:38:53 - 218° (SW) 3,751 10.2 -40.8°
Rises 21:39:03 0° 218° (SW) 3,705 - -40.8°
Reaches altitude 10° 21:42:15 10° 203° (SSW) 2,876 - -41.3°
Maximum altitude 21:47:33 22° 156° (SSE) 2,261 - -42.2°
Drops below altitude 10° 21:53:16 10° 109° (ESE) 3,139 - -43.2°
Sets 21:56:56 0° 96° (E) 4,134 - -43.8°
